Regional Weather Roundup
Issued by NWS

Home | Current Version | Previous Version | Text Only | Print | Product List | Glossary On
Versions: 1 2 3 4 5 6 7 8 9 10 11 12 13 14 15 16 17 18 19 20 21 22 23 24 25 26 27 28 29 30 31 32 33 34 35 36 37 38 39 40 41 42 43 44 45 46 47 48 49 50
000
ASUS44 KOUN 281810
RWROK

WEATHER ROUNDUP FOR OKLAHOMA
NATIONAL WEATHER SERVICE NORMAN OK
100 PM CDT SAT MAR 28 2015

NOTE: "FAIR" INDICATES FEW OR NO CLOUDS BELOW 12,000 FEET WITH NO
      SIGNIFICANT WEATHER AND/OR OBSTRUCTIONS TO VISIBILITY.

OKZ001>007-009>012-014-015-017-281900-
NORTHWEST OKLAHOMA AND THE PANHANDLE

CITY           SKY/WX    TMP DP  RH WIND       PRES   REMARKS
GAGE           SUNNY     82  34  17 NE9       29.99F
6HR MIN TEMP:  41; 6HR MAX TEMP:  82;

GUYMON         SUNNY     80  35  19 E8        30.01F
ENID/WOODRING  MOSUNNY   68  45  42 SE12      30.00F
$$

OKZ016-021>023-033>039-044-045-281900-
SOUTHWEST OKLAHOMA

CITY           SKY/WX    TMP DP  RH WIND       PRES   REMARKS
LAWTON/REGL    SUNNY     68  47  46 CALM      30.02F
6HR MIN TEMP:  37; 6HR MAX TEMP:  68;

LAWTON/FT SILL SUNNY     69  48  46 SW5       30.01F
FREDERICK      SUNNY     72  45  37 SW5       29.98F
CLINTON        SUNNY     71  45  39 CALM      30.03F
HOBART         SUNNY     70  45  40 VRB3      30.02F
ALTUS AFB      SUNNY     73  45  37 W2        30.00F
$$

OKZ018>020-024>031-281900-
CENTRAL OKLAHOMA

CITY           SKY/WX    TMP DP  RH WIND       PRES   REMARKS
OKLAHOMA CITY  MOSUNNY   68  44  42 VRB6      30.02F
6HR MIN TEMP:  44; 6HR MAX TEMP:  68;

OKC/WILEY POST SUNNY     65  45  48 VRB3      30.02F
OKC/TINKER AFB SUNNY     66  43  42 S9        30.02F
STILLWATER     SUNNY     67  43  41 S7        30.02F
GUTHRIE        SUNNY     67  42  40 VRB7      30.01F
$$

OKZ008-013-054>072-281900-
NORTHEAST OKLAHOMA

CITY           SKY/WX    TMP DP  RH WIND       PRES   REMARKS
TULSA          MOSUNNY   63  40  42 S9G21     30.05F
6HR MIN TEMP:  44; 6HR MAX TEMP:  63; 6HR PCP: TRACE;

TULSA/JONES    SUNNY     63  38  39 S9G17     30.05F
PONCA CITY     SUNNY     67  42  40 CALM      30.02F
BARTLESVILLE   SUNNY     66  40  38 NW5       30.06S
MUSKOGEE       SUNNY     61  38  42 S10       30.10F
$$

OKZ032-040>043-046>053-073>077-281900-
SOUTH CENTRAL/SOUTHEAST OKLAHOMA

CITY           SKY/WX    TMP DP  RH WIND       PRES   REMARKS
ARDMORE/DWNTWN SUNNY     70  41  35 SW5       30.04F
MCALESTER      MOSUNNY   65  37  35 S8        30.07F
$$



USA.gov is the U.S. government's official web portal to all federal, state and local government web resources and services.